Location: Prague
(50.0830°N, 14.4670°E)
Time: 19:34:29
(UTC+02:00)

ISS - Pass Details

Date: 29 September 2021
Orbit: 417 x 423 km, 51.6° (Epoch: 25 October)

Event Time Altitude Azimuth Distance (km) Brightness Sun altitude
Rises 20:13:59 0° 286° (WNW) 2,367 2.0 -15.1°
Reaches altitude 10° 20:16:05 10° 285° (WNW) 1,502 0.5 -15.4°
Maximum altitude 20:19:27 83° 199° (SSW) 428 -3.8 -15.9°
Enters shadow 20:20:31 41° 115° (ESE) 626 -3.4 -16.1°
